Wind_Speed
21 20 18 16 16 16 17 17 22 25 29 30 28 33 37 41 45 48 43 38 37 39 34 36 38 44 39 28 22 28 25 30 46 51 52 49 57 55 54 52 53 50 44 40
20 19 17 17 16 16 16 18 22 26 28 30 31 34 37 41 44 48 43 38 35 36 34 37 42 43 28 25 28 32 30 38 35 45 51 52 57 57 53 50 51 50 51 38
19 17 16 17 16 14 16 20 23 25 27 30 32 32 36 42 44 47 43 40 38 36 29 36 41 28 19 22 27 29 28 29 40 43 50 50 54 60 54 52 50 47 45 51
18 17 16 15 14 14 16 20 22 24 26 29 35 34 36 41 43 46 45 39 37 38 37 35 40 29 24 23 24 24 24 28 24 29 40 47 51 61 57 52 48 45 45 43
19 16 17 15 14 13 18 21 24 26 26 30 34 36 38 40 43 45 45 40 37 36 40 39 40 32 22 17 18 25 20 14 7 11 26 36 46 53 56 51 47 44 42 40
18 17 17 15 14 13 16 22 26 25 28 29 32 36 38 40 43 44 43 41 36 35 36 37 37 39 35 17 20 19 20 24 13 7 18 27 38 44 50 44 42 38 36 32
19 18 18 16 14 13 16 23 26 29 27 28 32 36 38 39 40 43 43 41 36 34 34 37 33 31 36 35 21 20 17 16 21 10 12 19 23 30 39 39 34 29 37 36
20 19 19 16 14 14 16 21 27 30 31 29 30 34 35 37 39 41 42 42 35 35 32 31 34 32 36 36 30 27 32 27 20 19 13 11 15 20 26 29 33 36 25 45
22 20 19 17 13 14 15 20 24 28 30 31 31 33 33 36 38 39 41 41 38 35 34 30 31 33 27 33 33 34 34 28 24 19 12 18 21 27 28 29 31 29 36 36
21 20 18 17 14 14 17 21 21 27 32 35 32 33 34 35 37 38 40 40 39 34 34 30 27 28 31 26 28 31 29 30 31 21 10 9 20 28 29 33 33 25 21 22
22 21 17 18 15 15 18 20 23 27 28 32 37 33 36 33 36 38 38 38 39 34 33 32 29 27 25 28 23 21 25 28 24 26 25 18 10 9 11 15 16 24 16 20
26 23 20 19 17 16 18 20 23 26 27 29 33 32 32 33 36 37 38 36 37 35 30 28 30 27 25 22 24 20 14 16 20 19 18 18 14 15 15 13 13 14 15 10
28 26 24 22 19 17 17 22 23 26 28 27 29 33 34 30 31 35 36 37 35 35 32 28 28 26 25 24 19 20 19 10 8 8 9 10 10 8 8 7 5 4 3 2
32 29 27 25 22 19 17 21 23 26 28 28 27 28 32 29 30 32 34 36 38 35 33 29 28 26 25 23 20 15 16 15 9 6 5 5 7 8 8 7 6 7 7 8
34 30 29 27 24 21 18 21 26 25 30 28 27 25 31 29 28 31 32 34 38 36 34 30 28 28 26 21 17 13 12 12 12 7 3 7 8 9 10 11 10 9 7 7
36 34 31 30 27 24 19 20 27 27 28 29 28 28 31 26 27 28 31 34 34 34 32 30 28 28 25 19 14 12 7 8 10 8 7 9 7 8 8 7 6 5 5 7
39 36 31 33 30 27 20 19 24 27 26 31 29 30 29 28 26 26 30 31 33 33 30 30 28 27 24 17 11 11 5 5 5 4 2 4 4 4 4 3 2 4 7 10
41 37 36 35 31 34 19 18 22 26 26 31 27 31 29 25 27 26 27 29 31 33 29 28 26 26 24 19 12 9 6 4 4 2 3 4 3 3 2 3 5 7 10 13
42 40 38 38 34 32 23 17 20 27 23 30 27 31 25 24 24 26 24 27 29 31 29 27 26 24 25 21 14 9 7 5 4 5 7 7 8 8 7 7 10 13 13 15
44 42 41 39 37 33 25 20 21 25 23 25 28 29 28 24 22 21 24 24 27 30 28 27 22 22 22 20 15 10 9 9 9 10 9 10 11 11 12 12 14 16 16 18
43 43 42 38 39 38 26 26 22 26 27 24 27 27 27 24 19 19 21 23 23 26 30 29 24 21 21 20 16 12 10 12 13 14 13 14 15 15 15 16 16 17 19 21
44 42 43 41 42 38 30 29 28 29 28 27 27 28 27 24 21 17 18 21 21 23 28 27 25 22 20 19 19 16 14 14 17 19 18 18 18 18 17 17 18 20 21 23
47 42 42 42 39 40 38 31 32 32 29 26 26 28 27 25 22 20 16 20 21 22 27 28 25 24 22 22 21 22 19 19 19 22 24 23 22 22 22 21 21 22 24 26
48 44 44 44 41 38 37 33 34 32 27 27 29 28 24 24 23 21 17 20 21 21 26 27 25 25 22 22 23 23 23 22 24 25 28 28 27 26 26 25 26 27 28 30
51 50 51 50 46 38 32 36 41 33 29 28 30 29 26 24 25 24 21 20 21 20 26 26 26 27 26 24 25 25 27 26 26 28 30 32 33 32 32 33 32 33 33 34
57 53 49 44 33 36 37 41 38 32 31 32 31 30 28 26 28 25 23 21 21 22 23 23 25 28 31 29 28 27 29 29 29 30 33 36 36 37 37 38 39 39 40 40
Wind_Direction
299 301 292 298 310 314 316 328 333 336 332 331 332 336 336 336 339 342 340 337 331 329 330 329 320 307 300 278 285 285 287 275 258 244 236 229 224 224 229 230 233 235 232 249
298 298 291 303 311 315 322 335 334 335 333 330 330 337 335 338 343 344 345 342 338 338 332 327 324 313 299 272 278 286 284 269 254 247 235 227 220 222 223 227 228 234 234 246
294 290 289 302 310 316 329 335 331 333 336 329 329 337 336 340 344 346 348 345 344 346 335 332 332 326 312 296 298 283 288 288 257 251 231 224 218 217 216 222 226 232 235 241
287 283 293 299 311 316 333 330 329 335 332 330 330 335 336 340 344 347 350 347 346 347 349 350 343 354 338 315 299 302 318 303 267 242 229 220 213 215 216 218 223 228 233 245
281 279 293 302 307 317 330 327 331 331 332 333 328 332 338 341 344 348 350 349 348 353 353 349 349 1 354 341 324 330 357 334 315 241 219 205 207 211 214 219 228 235 239 249
277 280 293 293 299 320 323 324 329 331 332 334 332 333 337 342 345 347 349 351 350 357 355 356 356 7 12 1 351 355 22 38 40 142 173 176 195 204 211 218 227 235 237 247
273 281 287 283 296 309 319 320 326 325 333 335 338 335 337 339 343 346 350 351 352 355 0 357 0 4 21 16 16 0 16 49 64 79 147 173 191 203 213 217 223 226 237 231
274 278 279 276 287 302 319 317 322 324 333 337 338 334 334 336 342 346 350 349 353 352 359 3 3 5 10 25 38 47 51 53 80 85 117 174 205 209 213 218 230 228 246 244
272 273 270 270 282 297 306 314 317 321 329 332 337 336 332 335 340 345 349 350 352 355 357 4 3 12 6 10 23 50 62 55 70 87 158 199 215 210 212 227 234 238 245 237
265 266 265 267 274 291 304 308 316 323 327 330 339 336 331 333 338 343 348 350 349 357 356 4 5 8 10 10 15 17 34 66 75 73 110 164 211 213 224 229 236 224 231 238
257 262 263 265 269 286 297 305 314 316 326 329 331 334 333 331 337 342 346 350 349 352 355 357 4 5 10 8 10 17 16 19 55 80 92 91 103 156 186 198 194 210 216 210
256 263 265 262 264 280 294 302 311 315 323 327 328 327 331 335 335 341 343 349 349 347 354 353 354 356 0 6 11 11 11 14 20 33 36 42 73 123 141 153 161 179 188 200
256 259 261 259 259 270 290 301 309 314 319 323 325 326 323 338 333 337 341 345 348 345 344 350 348 352 352 353 358 5 7 345 352 6 17 31 32 40 35 62 97 118 128 90
251 255 257 257 256 263 282 296 304 313 316 318 321 327 316 336 330 337 339 344 347 343 341 345 346 348 349 346 342 348 358 1 334 315 335 4 27 35 33 35 48 61 71 80
249 253 252 255 257 258 273 292 299 309 313 316 320 325 315 327 330 334 336 340 343 343 339 339 342 344 342 350 340 333 344 3 25 16 50 83 82 82 81 76 74 76 70 56
245 251 249 252 256 256 264 285 291 302 313 312 313 321 323 321 326 329 335 336 338 343 336 335 337 343 346 357 349 345 336 15 37 56 72 98 100 103 100 96 86 74 39 15
248 252 248 249 253 254 258 275 288 295 308 312 312 312 318 319 324 326 337 334 336 341 339 331 331 340 337 351 357 345 335 346 20 63 91 125 145 136 118 94 64 356 357 345
247 247 244 246 248 252 261 266 283 292 302 307 312 308 313 316 321 331 334 334 335 336 338 329 328 334 332 336 349 340 320 306 336 326 263 191 250 227 233 290 328 319 321 326
246 246 245 245 246 250 261 269 280 286 296 301 305 306 308 309 319 334 327 333 334 332 335 329 322 328 330 327 330 320 296 273 262 261 258 235 231 242 253 270 282 290 309 325
245 245 242 244 249 251 252 268 273 279 293 296 299 304 304 303 316 333 326 331 334 328 332 328 317 319 326 318 323 313 288 270 254 242 234 247 250 253 265 273 290 305 319 324
245 245 243 244 246 247 258 263 267 277 282 295 296 298 299 301 310 323 320 327 332 328 324 324 318 313 317 311 309 309 289 275 265 251 245 242 249 254 266 280 293 302 309 316
242 245 240 242 244 251 258 262 272 275 284 290 294 294 296 300 305 310 311 321 326 324 318 321 318 306 304 309 298 296 291 279 266 258 251 247 249 260 268 281 290 297 305 311
244 245 243 244 247 250 256 263 272 275 280 286 288 288 296 299 302 302 301 309 318 321 315 316 313 308 300 299 298 288 281 280 273 262 258 256 257 265 272 277 281 288 296 300
242 240 238 240 244 250 253 262 268 271 276 283 286 286 290 293 293 298 292 302 313 318 308 307 307 305 302 293 287 287 280 273 272 266 260 259 259 263 268 272 275 280 287 294
236 236 233 234 240 248 256 257 261 271 273 274 281 284 284 284 285 291 293 296 308 311 300 303 303 301 303 292 283 278 276 274 268 267 263 261 261 261 264 268 271 276 281 287
232 235 237 241 243 243 244 252 263 264 267 271 279 280 277 278 283 288 288 295 302 300 290 294 300 302 298 298 291 281 273 272 272 270 266 265 265 265 267 271 274 277 282 287
Height
5787 5786 5784 5783 5780 5778 5776 5774 5772 5770 5767 5764 5760 5756 5749 5743 5735 5724 5715 5706 5699 5690 5681 5675 5667 5658 5654 5648 5644 5642 5637 5630 5629 5634 5644 5654 5664 5670 5679 5687 5693 5699 5700 5708
5783 5781 5780 5779 5777 5775 5773 5770 5769 5767 5763 5760 5756 5752 5746 5740 5731 5721 5712 5704 5696 5688 5678 5671 5661 5649 5640 5637 5634 5630 5626 5619 5615 5616 5625 5637 5651 5660 5667 5676 5682 5687 5696 5699
5777 5777 5776 5775 5773 5771 5769 5767 5765 5763 5760 5756 5752 5748 5741 5735 5728 5717 5707 5699 5692 5685 5676 5667 5656 5640 5633 5630 5626 5620 5614 5606 5600 5600 5609 5620 5634 5647 5658 5665 5672 5680 5689 5694
5773 5772 5772 5770 5768 5767 5766 5764 5762 5759 5757 5753 5747 5744 5738 5731 5723 5714 5705 5696 5688 5680 5671 5663 5651 5638 5630 5624 5619 5613 5603 5591 5583 5584 5592 5607 5623 5637 5649 5658 5666 5677 5684 5689
5769 5768 5767 5765 5764 5763 5762 5760 5758 5756 5753 5750 5745 5740 5734 5727 5719 5711 5702 5694 5686 5678 5668 5659 5651 5638 5629 5621 5616 5606 5593 5582 5578 5579 5588 5600 5615 5631 5644 5654 5664 5672 5679 5685
5764 5764 5763 5761 5760 5758 5758 5757 5755 5752 5750 5747 5742 5736 5730 5723 5716 5709 5700 5692 5685 5677 5669 5658 5649 5638 5628 5619 5612 5602 5592 5585 5580 5582 5592 5603 5618 5630 5641 5652 5661 5668 5674 5679
5759 5759 5758 5757 5756 5755 5755 5754 5751 5749 5747 5743 5738 5732 5727 5720 5714 5706 5699 5690 5683 5676 5669 5661 5652 5642 5632 5620 5613 5606 5601 5595 5591 5594 5601 5612 5623 5632 5640 5650 5658 5664 5669 5673
5754 5754 5753 5753 5752 5751 5751 5750 5748 5744 5741 5739 5736 5730 5724 5718 5711 5704 5698 5689 5682 5675 5669 5662 5654 5645 5636 5629 5620 5612 5608 5605 5604 5606 5613 5621 5630 5635 5642 5649 5654 5658 5663 5667
5748 5749 5749 5748 5747 5748 5747 5747 5745 5741 5738 5735 5733 5727 5721 5714 5709 5703 5696 5689 5681 5676 5669 5662 5655 5649 5642 5634 5628 5622 5616 5614 5614 5617 5622 5627 5632 5637 5642 5647 5650 5654 5658 5663
5743 5743 5743 5743 5743 5743 5743 5743 5742 5739 5733 5728 5728 5723 5717 5712 5707 5702 5696 5688 5681 5675 5669 5664 5657 5652 5647 5640 5635 5628 5625 5621 5619 5621 5625 5629 5632 5635 5639 5643 5648 5651 5653 5655
5735 5737 5739 5738 5738 5738 5739 5738 5737 5735 5733 5727 5722 5721 5715 5710 5705 5700 5695 5688 5681 5675 5670 5664 5659 5654 5651 5645 5640 5636 5630 5627 5627 5625 5626 5629 5631 5633 5635 5638 5642 5645 5649 5652
5729 5729 5731 5732 5732 5732 5733 5733 5732 5730 5729 5725 5720 5717 5711 5708 5703 5698 5693 5688 5682 5675 5671 5665 5660 5656 5652 5649 5644 5640 5637 5635 5634 5634 5634 5634 5635 5636 5638 5640 5642 5646 5648 5650
5722 5723 5724 5725 5727 5727 5728 5727 5727 5726 5724 5722 5717 5714 5707 5704 5701 5696 5691 5687 5681 5676 5671 5667 5662 5658 5653 5650 5648 5645 5640 5638 5639 5639 5640 5640 5640 5640 5639 5640 5642 5643 5645 5648
5712 5715 5717 5718 5719 5721 5723 5722 5722 5721 5720 5718 5715 5712 5703 5702 5698 5693 5690 5685 5681 5676 5671 5666 5663 5658 5654 5650 5646 5645 5644 5641 5638 5638 5639 5640 5640 5639 5641 5643 5645 5646 5648 5650
5703 5707 5709 5710 5711 5713 5716 5716 5715 5715 5714 5713 5710 5707 5702 5698 5695 5691 5688 5684 5679 5674 5670 5666 5662 5658 5654 5651 5648 5645 5645 5643 5640 5639 5637 5636 5638 5640 5642 5643 5646 5648 5651 5652
5695 5697 5700 5702 5703 5705 5708 5710 5709 5709 5709 5707 5705 5703 5698 5696 5692 5688 5685 5682 5678 5674 5669 5664 5662 5658 5653 5650 5648 5647 5646 5644 5642 5643 5641 5640 5642 5642 5643 5646 5648 5650 5650 5652
5686 5689 5693 5694 5695 5697 5702 5703 5703 5702 5702 5701 5700 5697 5694 5692 5689 5686 5682 5679 5675 5672 5668 5663 5659 5657 5653 5650 5648 5648 5646 5646 5645 5646 5646 5645 5645 5646 5646 5647 5647 5648 5648 5649
5676 5680 5682 5685 5688 5687 5696 5696 5697 5695 5695 5693 5694 5691 5690 5686 5684 5682 5680 5675 5672 5669 5666 5662 5658 5654 5652 5649 5646 5645 5646 5646 5645 5644 5646 5645 5646 5647 5647 5648 5647 5648 5648 5648
5666 5670 5673 5675 5679 5683 5686 5688 5689 5687 5689 5686 5687 5684 5684 5681 5678 5678 5674 5672 5669 5666 5664 5661 5657 5654 5650 5648 5646 5645 5644 5645 5645 5645 5646 5645 5647 5649 5648 5647 5648 5649 5647 5646
5656 5660 5664 5666 5670 5674 5678 5679 5680 5679 5681 5680 5679 5678 5677 5675 5673 5673 5670 5668 5665 5663 5660 5657 5654 5652 5649 5646 5645 5644 5643 5643 5643 5643 5642 5643 5645 5645 5645 5645 5645 5644 5642 5640
5646 5650 5653 5657 5660 5664 5669 5669 5672 5672 5675 5673 5673 5672 5671 5668 5667 5667 5664 5664 5661 5659 5656 5653 5651 5649 5648 5645 5643 5642 5642 5642 5641 5641 5641 5641 5642 5642 5643 5642 5641 5640 5640 5638
5636 5640 5643 5647 5651 5656 5660 5660 5664 5663 5664 5665 5665 5664 5664 5662 5660 5659 5658 5658 5656 5654 5652 5651 5648 5645 5644 5642 5640 5639 5638 5637 5638 5638 5639 5638 5639 5639 5637 5636 5636 5635 5633 5631
5624 5631 5635 5641 5645 5644 5645 5651 5653 5654 5656 5657 5657 5655 5656 5655 5654 5652 5653 5652 5650 5648 5647 5646 5644 5641 5639 5637 5636 5634 5634 5633 5633 5634 5634 5633 5633 5633 5632 5632 5631 5628 5626 5624
5612 5618 5622 5628 5634 5636 5636 5640 5642 5643 5648 5649 5648 5648 5648 5648 5646 5645 5645 5645 5644 5642 5641 5641 5640 5637 5635 5632 5630 5629 5628 5628 5628 5628 5628 5628 5627 5626 5626 5625 5624 5623 5621 5619
5599 5603 5608 5614 5620 5626 5629 5629 5628 5634 5637 5639 5638 5639 5638 5639 5638 5638 5637 5638 5638 5636 5634 5634 5633 5631 5629 5625 5624 5623 5621 5621 5621 5621 5621 5621 5621 5620 5619 5619 5618 5616 5614 5612
5585 5591 5598 5608 5612 5611 5616 5619 5622 5623 5626 5627 5630 5630 5629 5630 5630 5630 5629 5629 5629 5629 5628 5628 5627 5624 5621 5619 5618 5617 5615 5614 5613 5613 5613 5613 5613 5613 5612 5611 5610 5608 5606 5604